Wetbulb
55.52 54.85 55.08 50.61 46.79 48.23 44.35 40.97 40.86 44.14 48.37 52.93 56.51 57.52 58.89 59.43 60.62 61.26 61.93 61.69 63.01 63.44 64.36 66.23 67.76 68.42 69.61 69.87 69.91 70.07 70.62 70.91
54.24 56.17 55.42 52.28 53.75 46.63 44.32 39.36 37.28 41.98 43.81 46.66 52.71 55.45 57.72 58.33 58.59 59.32 59.64 61.86 62.37 63.06 63.71 65.22 67.33 68.83 69.74 70.42 70.38 70.67 70.97 71.25
51.33 49.47 49.81 50.36 48.21 46.62 45.44 42.80 39.78 38.44 44.03 50.72 54.28 56.20 56.99 57.94 58.83 58.17 59.60 60.56 61.95 62.98 63.92 64.89 67.12 68.69 69.27 69.72 70.59 71.05 71.58 71.70
47.70 47.04 52.88 51.90 51.22 48.39 44.48 42.93 41.20 41.69 44.89 53.04 54.43 56.72 58.25 58.31 57.98 58.94 60.76 61.45 62.64 63.69 64.93 66.03 68.08 69.11 69.49 70.08 70.22 71.15 71.94 72.09
41.90 45.13 50.55 50.33 50.93 47.53 45.70 44.46 42.27 42.64 45.05 54.04 52.80 55.59 58.06 56.60 57.83 62.15 64.43 65.46 65.86 64.93 65.57 68.26 69.97 70.56 70.63 71.11 71.48 71.86 72.43 71.91
40.20 43.00 48.58 48.71 51.37 50.04 46.82 45.13 43.11 45.00 46.81 51.63 52.74 56.18 57.82 60.70 64.85 66.31 67.77 69.08 69.02 69.05 68.27 68.55 69.35 68.88 68.79 69.86 69.97 69.66 69.70 69.79
44.73 46.91 50.29 51.25 52.77 51.97 49.16 47.87 47.67 48.37 48.61 52.28 52.89 57.63 60.54 65.53 67.52 68.44 68.20 68.94 68.94 68.55 68.25 68.61 68.52 67.87 67.88 67.61 67.97 68.17 67.55 67.10
43.51 45.84 49.20 50.24 51.95 52.73 51.36 49.78 50.03 49.36 49.45 54.06 61.59 64.67 64.95 65.87 67.52 67.61 67.36 67.97 68.28 68.99 69.18 68.03 67.96 67.03 67.37 67.21 66.69 66.34 65.21 64.12
39.72 45.48 47.79 45.65 51.17 51.65 51.11 51.14 51.64 49.46 52.23 62.89 62.69 63.24 64.84 66.22 67.52 67.68 67.50 67.20 67.77 68.61 68.32 67.58 66.98 66.45 65.61 65.09 64.49 63.03 62.33 62.05
39.94 43.79 39.16 48.44 52.96 55.28 54.75 53.51 53.32 56.10 60.89 62.26 63.04 64.66 66.42 67.92 67.91 67.84 67.68 66.54 66.89 66.67 66.11 65.97 65.70 65.34 65.01 63.69 61.84 60.85 60.38 60.53
41.97 40.86 45.17 49.54 51.75 52.40 52.24 51.73 54.28 58.99 62.82 63.77 65.10 65.49 64.71 68.07 68.46 68.32 67.68 67.20 66.58 65.86 65.61 64.88 64.73 64.58 63.35 61.78 60.83 60.47 59.89 60.02
40.46 40.75 41.59 48.50 53.15 55.60 55.20 48.92 56.33 63.01 63.25 63.77 64.85 59.23 62.33 67.22 68.08 67.50 67.01 66.56 65.59 65.37 64.55 64.23 63.44 64.16 62.62 61.72 61.08 60.15 60.23 60.28
41.00 41.63 45.45 51.00 54.04 56.61 48.38 50.43 59.94 64.16 64.74 64.98 62.72 62.11 65.45 67.76 67.45 67.27 66.36 65.91 65.46 64.75 63.59 63.51 63.55 64.21 63.01 62.25 61.11 61.95 61.93 61.55
40.41 41.14 42.90 53.51 54.78 52.49 54.44 56.64 62.75 64.61 65.87 65.47 63.92 66.04 67.04 66.91 66.33 65.81 65.34 65.23 64.73 63.23 62.79 62.88 63.69 64.08 63.13 62.86 63.40 63.33 62.25 61.34
46.58 45.44 50.54 57.30 56.66 57.50 58.78 60.03 63.72 65.02 66.48 65.31 65.39 66.19 66.33 65.69 65.37 65.48 65.12 64.68 64.38 63.11 62.54 62.72 63.55 64.64 63.32 62.91 61.95 60.26 58.44 58.37
46.70 47.60 51.48 55.74 57.75 58.88 62.94 63.11 65.78 66.95 67.28 66.01 65.74 66.34 65.67 65.27 64.91 64.66 64.41 64.43 64.25 63.21 62.62 62.58 63.46 64.59 64.43 62.21 60.80 58.96 57.33 57.17
45.23 47.55 53.78 56.28 58.51 60.02 63.93 65.57 66.58 67.84 66.27 66.51 66.63 65.88 65.39 64.71 64.49 64.10 64.38 64.97 64.21 63.13 63.16 63.15 63.66 64.15 64.74 61.31 60.64 58.65 57.54 56.77
46.21 49.18 51.21 55.26 59.22 63.87 64.63 65.70 66.88 65.75 65.85 66.94 66.93 65.68 65.64 64.73 64.64 64.23 64.43 64.66 63.40 62.80 63.01 63.37 64.34 64.60 64.58 61.69 60.25 58.18 56.97 56.56
54.62 55.96 56.10 57.74 61.15 65.98 65.98 66.52 66.87 66.75 66.73 65.72 66.58 66.20 65.74 64.65 64.41 62.82 64.81 64.09 63.16 62.94 63.69 63.66 63.91 64.26 64.90 63.32 60.99 59.34 58.60 58.50
MSLP
1004.29 1004.88 1005.68 1007.97 1009.32 1010.11 1011.99 1013.51 1013.03 1011.99 1009.97 1007.84 1006.80 1006.83 1006.87 1007.05 1007.53 1007.70 1007.88 1008.45 1008.81 1009.31 1009.80 1010.31 1010.89 1011.39 1011.85 1012.34 1012.81 1013.21 1013.51 1013.94
1004.83 1004.51 1006.02 1006.56 1008.35 1009.88 1010.97 1012.54 1012.71 1011.64 1010.01 1008.21 1007.10 1006.77 1006.77 1007.17 1007.43 1007.39 1007.74 1008.19 1008.84 1009.24 1009.62 1010.04 1010.35 1010.87 1011.47 1011.83 1012.14 1012.49 1013.13 1013.50
1004.88 1004.94 1005.75 1007.15 1008.01 1009.31 1010.38 1011.27 1011.66 1011.38 1009.48 1007.33 1006.66 1006.35 1006.58 1006.88 1007.21 1007.41 1007.90 1008.37 1008.97 1009.33 1009.73 1010.21 1010.66 1011.08 1011.52 1011.97 1012.43 1012.81 1013.15 1013.66
1005.03 1004.85 1005.11 1005.71 1006.86 1008.66 1009.21 1011.06 1010.92 1009.92 1008.28 1006.62 1006.22 1006.05 1006.32 1006.85 1007.40 1007.92 1008.50 1008.98 1009.34 1009.78 1010.27 1010.75 1011.27 1011.65 1012.07 1012.38 1012.70 1012.95 1013.20 1013.53
1005.34 1005.19 1005.33 1005.54 1006.09 1006.80 1007.46 1008.60 1009.62 1009.19 1007.91 1006.68 1006.51 1006.62 1006.97 1007.39 1008.12 1008.75 1009.37 1009.75 1010.16 1010.68 1011.21 1011.58 1011.88 1012.20 1012.53 1012.73 1012.83 1012.91 1013.21 1013.59
1004.99 1004.44 1004.48 1004.82 1005.08 1005.90 1006.36 1007.44 1008.63 1008.05 1007.39 1006.95 1006.93 1007.12 1007.68 1008.16 1008.82 1009.38 1010.13 1010.45 1010.90 1011.42 1012.03 1012.42 1012.66 1012.91 1013.11 1013.20 1013.36 1013.53 1013.73 1014.13
1004.30 1003.88 1004.04 1003.89 1003.98 1004.42 1005.31 1005.45 1006.17 1006.26 1006.89 1006.59 1006.59 1007.14 1007.76 1008.52 1009.32 1009.99 1010.72 1011.12 1011.58 1011.94 1012.47 1013.04 1013.34 1013.58 1013.81 1013.98 1014.15 1014.24 1014.45 1014.86
1004.66 1003.92 1003.71 1003.46 1003.28 1003.77 1004.33 1005.05 1004.99 1005.47 1006.27 1006.24 1006.87 1007.56 1008.25 1008.84 1009.36 1010.38 1011.01 1011.56 1011.99 1012.35 1012.89 1013.49 1013.93 1014.22 1014.49 1014.74 1014.90 1014.98 1015.37 1015.80
1005.22 1003.91 1003.81 1003.14 1002.06 1002.58 1003.37 1003.73 1004.14 1004.93 1005.01 1006.22 1007.16 1007.83 1008.08 1008.75 1009.44 1010.28 1011.02 1011.81 1012.29 1012.69 1013.26 1013.85 1014.39 1014.74 1015.18 1015.53 1015.65 1015.87 1016.29 1016.76
1005.45 1004.39 1003.52 1001.61 1000.48 1000.87 1001.47 1002.42 1003.36 1004.06 1004.83 1005.26 1006.07 1007.49 1008.23 1008.92 1008.95 1010.25 1011.06 1012.02 1012.51 1013.02 1013.71 1014.43 1014.96 1015.43 1015.86 1016.16 1016.41 1016.71 1017.04 1017.29
1005.28 1004.76 1003.19 1001.05 1000.48 1000.50 1001.14 1001.69 1002.29 1003.68 1005.02 1005.85 1006.75 1007.90 1008.94 1009.27 1009.72 1010.23 1011.13 1012.06 1012.77 1013.40 1014.03 1014.78 1015.34 1015.83 1016.20 1016.73 1017.04 1017.31 1017.70 1017.92
1005.05 1004.20 1002.72 1000.59 998.91 998.76 999.58 1001.03 1001.59 1002.58 1004.26 1005.31 1006.55 1007.69 1008.23 1009.18 1009.89 1010.91 1011.63 1012.27 1012.96 1013.79 1014.39 1015.04 1015.74 1016.11 1016.65 1017.25 1017.60 1017.98 1018.21 1018.43
1003.64 1002.53 1001.00 999.04 998.24 998.83 999.74 1000.18 1000.58 1001.76 1003.03 1004.41 1004.99 1004.45 1006.27 1008.70 1010.19 1011.06 1011.88 1012.72 1013.44 1014.11 1014.62 1015.32 1015.84 1016.33 1017.00 1017.54 1017.94 1018.23 1018.53 1018.78
1002.35 1001.08 999.79 997.81 998.44 998.23 998.10 998.42 998.97 1001.07 1002.08 1003.15 1004.73 1005.31 1006.92 1008.89 1010.23 1011.27 1012.17 1013.23 1013.97 1014.42 1015.09 1015.71 1016.04 1016.39 1017.05 1017.56 1017.92 1018.24 1018.58 1018.95
1000.14 999.05 997.59 996.64 996.06 995.90 996.26 996.97 998.68 999.49 1001.74 1003.20 1004.23 1005.66 1006.78 1008.72 1010.25 1011.13 1012.36 1013.37 1014.03 1014.53 1015.24 1015.87 1016.26 1016.62 1017.20 1017.76 1018.16 1018.62 1018.99 1019.26
999.43 998.26 997.31 996.50 995.93 995.83 996.03 996.32 997.44 998.81 1000.23 1002.35 1003.65 1005.39 1007.05 1008.79 1010.09 1011.03 1012.38 1013.25 1013.79 1014.47 1015.21 1015.91 1016.38 1016.74 1016.98 1017.66 1018.23 1018.69 1019.18 1019.58
998.27 997.47 996.92 996.43 995.93 995.55 996.03 996.81 998.01 999.21 999.73 1001.81 1003.56 1005.34 1006.29 1008.47 1009.84 1010.76 1012.01 1012.89 1013.60 1014.37 1015.06 1015.57 1016.09 1016.66 1017.16 1017.74 1018.21 1018.74 1019.24 1019.73
997.91 996.90 996.55 996.00 995.51 995.66 996.32 996.98 997.90 999.18 1001.21 1002.54 1003.14 1004.80 1006.62 1008.22 1009.35 1010.76 1011.87 1012.67 1013.58 1014.32 1014.90 1015.54 1016.14 1016.64 1017.07 1017.58 1018.05 1018.56 1019.22 1019.72
997.57 996.79 996.44 996.02 995.97 995.28 995.73 996.86 997.48 998.57 999.59 1001.48 1003.84 1005.05 1006.14 1007.50 1009.35 1010.72 1011.87 1012.69 1013.42 1014.05 1014.62 1015.15 1015.66 1016.23 1016.83 1017.22 1017.86 1018.49 1018.88 1019.40
Wind_Speed
1 4 9 5 4 4 9 3 3 3 7 8 2 5 5 5 4 8 8 9 12 8 11 10 10 12 14 11 9 9 11 8
2 6 7 7 9 3 4 5 2 4 5 5 3 6 4 5 8 8 5 6 7 8 8 8 10 9 8 9 12 10 8 7
5 5 8 2 1 3 6 4 7 3 7 8 9 8 9 7 7 6 3 3 5 5 5 5 4 5 4 4 3 2 1 2
8 1 4 4 8 6 7 5 2 4 7 2 5 7 7 7 4 4 6 5 5 5 6 6 6 6 5 4 5 4 4 4
8 7 3 5 5 4 5 4 5 7 6 3 4 5 2 7 6 6 6 8 8 8 7 7 7 7 6 5 4 4 5 5
9 8 5 3 6 6 3 5 7 6 4 3 5 8 6 6 6 8 7 9 10 10 11 10 9 8 7 7 7 7 8 9
8 6 5 6 9 11 8 7 8 7 9 8 9 11 9 8 10 11 11 11 11 11 10 9 9 10 9 9 8 8 9 9
8 6 8 7 5 3 4 3 5 7 5 4 5 7 7 9 13 12 13 13 12 12 12 11 9 8 8 9 8 8 9 8
7 4 5 5 9 8 5 5 8 6 9 9 6 9 12 12 11 14 14 14 13 11 10 9 9 7 9 7 7 8 8 7
4 3 4 12 6 11 15 5 5 5 10 9 10 6 7 5 15 14 15 14 12 11 10 10 8 8 8 7 7 8 8 8
8 5 5 5 4 10 11 11 10 11 10 12 15 8 5 4 4 11 13 13 11 9 10 9 9 8 9 8 7 8 7 7
5 8 13 10 7 5 6 5 9 14 18 20 14 8 6 10 12 12 11 11 13 11 10 11 8 9 10 8 7 7 6 6
3 5 7 8 6 9 10 12 15 21 22 21 17 5 13 16 11 12 12 13 12 11 11 11 9 10 10 8 8 6 6 6
3 5 6 7 8 14 11 4 20 18 23 22 9 16 22 16 16 15 16 14 11 11 10 8 8 10 9 9 7 6 6 6
11 9 6 14 12 8 8 12 18 24 17 13 18 16 21 19 16 16 15 12 10 11 11 7 6 8 9 7 7 7 6 6
7 6 8 12 1 6 7 16 20 22 25 20 18 22 19 17 16 16 14 13 11 12 12 9 6 6 8 8 7 8 7 6
1 1 4 3 6 6 5 11 14 18 24 19 22 20 23 18 16 15 14 12 12 11 11 10 8 7 8 8 9 7 6 5
7 5 5 8 7 9 11 17 20 23 18 16 23 23 19 16 15 15 14 12 11 10 10 9 8 8 8 9 9 9 7 5
3 3 4 8 5 10 18 20 23 25 24 26 15 17 21 20 14 15 13 13 12 12 11 10 9 10 9 9 9 8 7 6
Wind_Direction
129 128 139 194 215 151 110 13 81 231 290 318 123 133 182 219 181 221 225 185 199 187 187 188 188 190 191 192 197 193 205 206
189 96 34 130 154 73 10 126 150 309 285 208 154 205 208 187 221 254 231 198 174 186 180 187 194 192 182 193 201 203 199 201
112 207 159 118 112 58 115 115 143 144 263 215 194 196 191 213 221 242 245 229 164 185 174 159 137 157 168 180 182 178 197 46
211 226 205 138 164 183 122 210 56 134 259 272 234 203 175 198 177 82 69 100 112 111 98 95 102 104 110 118 132 153 153 155
351 357 123 184 187 141 116 99 192 125 257 332 155 144 124 158 116 95 91 86 81 73 74 79 78 74 74 69 102 131 128 111
189 196 161 189 173 184 123 120 165 205 172 259 189 156 143 128 117 102 91 89 94 86 83 84 83 79 76 68 64 77 82 84
225 198 182 219 188 177 198 163 148 209 173 219 201 179 163 143 122 110 109 102 107 108 102 93 89 83 75 70 68 77 81 75
229 209 199 224 187 78 73 168 99 126 220 194 123 100 128 147 129 122 123 119 118 111 106 101 95 88 82 77 70 76 75 69
241 216 126 333 231 184 171 174 150 156 207 156 133 165 161 146 136 134 131 128 125 114 108 105 105 99 92 85 75 73 77 73
184 64 175 233 234 207 203 178 155 97 155 163 141 115 99 138 140 138 134 134 129 123 113 112 104 95 95 82 77 79 73 73
147 175 269 289 189 148 159 238 177 133 124 116 115 81 41 112 123 133 139 136 129 123 121 119 114 111 104 92 88 84 78 78
141 163 211 236 224 170 92 236 171 146 149 142 147 148 204 149 128 124 124 129 130 129 122 121 121 117 113 109 103 100 100 95
172 161 264 240 200 120 128 228 161 161 160 158 179 188 134 135 129 128 130 132 132 135 138 140 134 126 123 125 125 127 116 107
115 128 234 167 96 154 198 173 160 163 173 169 120 123 131 133 138 137 137 140 146 136 136 140 138 131 134 137 142 131 123 115
179 207 239 186 174 201 162 158 177 160 165 151 137 142 144 147 146 142 148 153 147 137 137 143 142 139 135 144 133 122 112 116
112 211 215 211 179 153 177 171 168 166 154 153 149 147 140 144 149 147 156 155 147 144 145 148 152 144 139 141 134 126 121 123
155 275 105 173 231 170 163 145 144 157 151 151 145 154 149 153 155 152 155 152 150 149 151 155 152 144 143 142 143 134 132 133
200 201 150 207 188 150 142 156 154 142 143 150 154 154 152 153 148 150 153 147 145 145 149 150 146 145 147 151 151 146 144 149
190 189 207 280 267 182 157 164 159 159 156 151 153 153 153 144 145 143 143 147 149 159 154 150 148 152 161 160 153 159 158 161